Regional Weather Roundup
Issued by NWS Goodland, KS

Home | Current Version | Previous Version | Graphics & Text | Print | Product List | Glossary On
Versions: 1 2 3 4 5 6 7 8 9 10 11 12 13 14 15 16 17 18 19 20 21 22 23 24 25 26 27 28 29 30 31 32 33 34 35 36 37 38 39 40 41 42 43 44 45 46 47 48 49 50
000
ASUS43 KGLD 012159
RWRGLD

GOODLAND FORECAST AREA HOURLY WEATHER ROUNDUP
NATIONAL WEATHER SERVICE GOODLAND KS
400 PM MDT FRI AUG 01 2014

...OFFICIAL OBSERVATIONS...

CITY           SKY/WX    TMP DP  RH WIND       PRES   REMARKS
GOODLAND KS    NOT AVBL
HILL CITY KS   NOT AVBL
IMPERIAL NEB   NOT AVBL
MCCOOK NEB     NOT AVBL
AKRON CO       PTSUNNY   82  42  24 E6        30.21F
BURLINGTON CO  NOT AVBL
LIMON CO       NOT AVBL
$$

...UNOFFICIAL OBSERVATIONS...

CITY           SKY/WX    TMP DP  RH WIND       PRES   REMARKS
COLBY KS       MOSUNNY   88  54  31 SE10      30.14S HAZE
GOVE KS          N/A     88  32  13 MISG        N/A
NORTON KS      SUNNY     91  43  18 NE10G17   30.09S
KIT CARSON CO    N/A     84  48  28 N5G12       N/A
YUMA CO          N/A     85  44  23 CALM        N/A
$$



USA.gov is the U.S. government's official web portal to all federal, state and local government web resources and services.